Kiana, AK

4:17 AM AKST on December 04, 2016 (GMT -0900)
Baker Memorial

Weather History for PAIK - March, 2013

Change the Weather History Date:

Friday, March 29, 2013

  Actual Average (PAOT) Record (PAOT)
Temperature  
Mean Temperature 15 °F -  
Max Temperature 17 °F 11 °F 39 °F (1973)
Min Temperature 6 °F -5 °F -32 °F (1944)
Degree Days  
Heating Degree Days 50 62  
Month to date heating degree days 1864  
Since 1 July heating degree days 12106  
Cooling Degree Days 0    
Month to date cooling degree days  
Year to date cooling degree days  
Moisture  
Dew Point 10 °F    
Average Humidity 79    
Maximum Humidity 88    
Minimum Humidity 67    
Precipitation  
Precipitation 0.00 in 0.01 in 0.20 in (1936)
Month to date precipitation 0.42  
Year to date precipitation 1.70  
Snow  
Snow 0.00 in 0.10 in 7.50 in (1938)
Month to date snowfall 5.6  
Since 1 July snowfall 53.2  
Snow Depth -    
Sea Level Pressure  
Sea Level Pressure 29.99 in    
Wind  
Wind Speed 4 mph (NNE)    
Max Wind Speed 17 mph    
Max Gust Speed 22 mph    
Visibility 6 miles    
Events Snow    
T = Trace of Precipitation, MM = Missing Value Source: NWS Daily Summary

Daily Weather History Graph

Daily Weather History Graph

Search for Another Location

Airport or City:

Trip Planner

Search our weather history database for the weather conditions in past years. The results will help you decide how hot, cold, wet, or windy it might be!

Date:

Astronomy

Mar. 29, 2013 Rise Set
Actual Time 8:03 AM AKDT 9:31 PM AKDT
Civil Twilight 7:08 AM AKDT 10:27 PM AKDT
Nautical Twilight 5:55 AM AKDT 11:41 PM AKDT
Astronomical Twilight 4:07 AM AKDT 1:35 AM AKDT
Moon 12:51 AM AKDT (3/29) 7:55 AM AKDT (3/29)
Length of Visible Light 15h 19m
Length of Day
13h 27m
Waning Gibbous, 92% of the Moon is Illuminated
Mar 29
Waning Gibbous
Apr 2
Last Quarter
Apr 10
New
Apr 18
First Quarter
Apr 25
Full

Hourly Weather History & Observations

Time (AKDT) Temp. Windchill Dew Point Humidity Pressure Visibility Wind Dir Wind Speed Gust Speed Precip Events Conditions
12:01 AM 8.6 °F - -0.4 °F 67% 29.94 in 9.0 mi Calm Calm - 0.00 in Snow Light Snow
1:01 AM 8.1 °F -0.5 °F 1.0 °F 73% 30.08 in 9.0 mi East 4.6 mph - 0.00 in Snow Light Snow
1:44 AM 10.4 °F -3.3 °F 3.2 °F 73% 29.93 in 9.0 mi East 10.4 mph - 0.00 in Snow Light Snow
2:01 AM 9.0 °F - 1.9 °F 73% 30.07 in 9.0 mi Calm Calm - 0.00 in Snow Light Snow
3:01 AM 10.0 °F 0.4 °F 3.0 °F 73% 30.07 in 9.0 mi North 5.8 mph - 0.00 in Snow Light Snow
4:01 AM 8.1 °F - 1.9 °F 76% 30.07 in 8.0 mi Calm Calm - 0.00 in Snow Light Snow
4:22 AM 6.8 °F -0.1 °F 1.4 °F 79% 29.93 in 6.0 mi NW 3.5 mph - 0.00 in Snow Light Snow
5:01 AM 8.6 °F 0.1 °F 3.2 °F 79% 29.93 in 7.0 mi North 4.6 mph - 0.00 in Snow Light Snow
6:01 AM 10.0 °F - 5.0 °F 80% 30.06 in 8.0 mi Calm Calm - 0.00 in Snow Light Snow
6:34 AM 10.4 °F 4.0 °F 5.0 °F 79% 29.92 in 5.0 mi Variable 3.5 mph - 0.00 in Snow Light Snow
7:01 AM 10.0 °F 1.8 °F 5.0 °F 80% 30.06 in 8.0 mi Variable 4.6 mph - 0.00 in Snow Light Snow
7:48 AM 10.4 °F 2.2 °F 6.8 °F 85% 29.92 in 9.0 mi Variable 4.6 mph - 0.00 in Snow Light Snow
8:01 AM 10.9 °F 1.4 °F 6.1 °F 81% 30.05 in 9.0 mi ESE 5.8 mph - 0.00 in Snow Light Snow
8:14 AM 10.4 °F -7.2 °F 6.8 °F 85% 29.91 in 9.0 mi NE 17.3 mph 21.9 mph 0.00 in Snow Light Snow
8:21 AM 12.2 °F 1.7 °F 6.8 °F 79% 29.92 in 9.0 mi NW 6.9 mph 21.9 mph 0.00 in Snow Light Snow
9:01 AM 12.2 °F -0.2 °F 6.8 °F 79% 29.92 in 9.0 mi NW 9.2 mph - 0.00 in Snow Light Snow
9:21 AM 12.2 °F 4.3 °F 6.8 °F 79% 29.92 in 9.0 mi East 4.6 mph - 0.00 in Snow Light Snow
10:01 AM 12.2 °F 0.7 °F 8.6 °F 85% 29.92 in 3.0 mi NW 8.1 mph - 0.00 in Snow Light Snow
10:10 AM 12.2 °F - 8.6 °F 85% 29.93 in 1.8 mi Calm Calm - 0.00 in Snow Light Snow
10:22 AM 12.2 °F - 8.6 °F 85% 29.93 in 4.0 mi Calm Calm - 0.00 in Snow Light Snow
10:29 AM 14.0 °F - 9.0 °F 80% 30.06 in 4.0 mi Calm Calm - 0.00 in Snow Light Snow
10:48 AM 14.0 °F - 8.6 °F 79% 29.93 in 2.0 mi Calm Calm - 0.00 in Snow Light Snow
11:01 AM 14.0 °F 8.2 °F 9.0 °F 80% 30.06 in 2.5 mi Variable 3.5 mph - 0.00 in Snow Light Snow
11:08 AM 15.8 °F 10.2 °F 10.4 °F 79% 29.93 in 5.0 mi NW 3.5 mph - 0.00 in Snow Light Snow
11:15 AM 15.8 °F 10.2 °F 10.4 °F 79% 29.93 in 9.0 mi WNW 3.5 mph - 0.00 in Snow Light Snow
11:38 AM 15.8 °F - 10.4 °F 79% 29.93 in 2.5 mi Calm Calm - 0.00 in Snow Light Snow
11:49 AM 15.8 °F 10.2 °F 10.4 °F 79% 29.93 in 3.0 mi WNW 3.5 mph - 0.00 in Snow Light Snow
12:01 PM 17.1 °F 5.0 °F 10.0 °F 74% 30.06 in 8.0 mi East 10.4 mph - 0.00 in Snow Light Snow
1:01 PM 19.9 °F 11.1 °F 12.0 °F 71% 30.06 in 5.0 mi NNW 6.9 mph - 0.00 in Snow Light Snow
1:35 PM 17.6 °F 12.3 °F 10.4 °F 73% 29.93 in 3.0 mi Variable 3.5 mph - 0.00 in Snow Light Snow
2:01 PM 18.0 °F 9.8 °F 12.0 °F 78% 30.06 in 4.0 mi East 5.8 mph - 0.00 in Snow Light Snow
2:14 PM 19.4 °F 10.4 °F 12.2 °F 74% 29.93 in 3.0 mi NW 6.9 mph - 0.00 in Snow Light Snow
2:29 PM 19.4 °F 14.3 °F 12.2 °F 74% 29.93 in 2.0 mi West 3.5 mph - 0.00 in Snow Light Snow
2:46 PM 21.2 °F 14.9 °F 12.2 °F 68% 29.93 in 7.0 mi Variable 4.6 mph - 0.00 in Snow Light Snow
2:54 PM 19.4 °F 11.5 °F 12.2 °F 74% 29.93 in 9.0 mi East 5.8 mph - 0.00 in Snow Light Snow
3:01 PM 19.9 °F 8.6 °F 12.0 °F 71% 30.06 in 9.0 mi ESE 10.4 mph - 0.00 in Snow Light Snow
3:12 PM 19.4 °F 8.6 °F 12.2 °F 74% 29.93 in 9.0 mi East 9.2 mph - 0.00 in   Overcast
3:51 PM 19.4 °F 12.8 °F 14.0 °F 80% 29.93 in 1.8 mi East 4.6 mph - 0.00 in Snow Light Snow
4:01 PM 19.4 °F 11.5 °F 14.0 °F 80% 29.93 in 2.0 mi East 5.8 mph - 0.00 in Snow Light Snow
4:16 PM 19.9 °F 9.3 °F 15.1 °F 81% 30.07 in 2.0 mi East 9.2 mph - 0.00 in Snow Light Snow
4:23 PM 19.4 °F 10.4 °F 15.8 °F 86% 29.94 in 4.0 mi East 6.9 mph - 0.00 in Snow Light Snow
4:58 PM 21.2 °F 13.6 °F 14.0 °F 74% 29.94 in 4.0 mi East 5.8 mph - 0.00 in Snow Light Snow
5:01 PM 21.0 °F 16.2 °F 14.0 °F 74% 30.07 in 4.0 mi East 3.5 mph - 0.00 in Snow Light Snow
5:56 PM 23.0 °F - 17.6 °F 80% 29.94 in 3.0 mi Calm Calm - 0.00 in Snow Light Snow
6:01 PM 24.8 °F - 17.6 °F 74% 29.94 in 2.5 mi Calm Calm - 0.00 in Snow Light Snow
6:10 PM 24.8 °F - 17.6 °F 74% 29.94 in 5.0 mi Calm Calm - 0.00 in Snow Light Snow
7:01 PM 21.9 °F 14.5 °F 16.0 °F 78% 30.08 in 8.0 mi East 5.8 mph - 0.00 in Snow Light Snow
8:01 PM 19.9 °F 14.9 °F 15.1 °F 81% 30.09 in 8.0 mi NW 3.5 mph - 0.00 in Snow Light Snow
8:59 PM 21.2 °F - 15.8 °F 80% 29.97 in 9.0 mi Calm Calm - 0.00 in Snow Light Snow
9:01 PM 21.0 °F - 16.0 °F 81% 30.10 in 9.0 mi Calm Calm - 0.00 in Snow Light Snow
9:40 PM 19.4 °F 14.3 °F 15.8 °F 86% 29.97 in 2.5 mi NNW 3.5 mph - 0.00 in Snow Light Snow
9:51 PM 19.4 °F 11.5 °F 15.8 °F 86% 29.98 in 4.0 mi NNW 5.8 mph - 0.00 in Snow Light Snow
10:01 PM 19.0 °F 10.0 °F 16.0 °F 88% 30.11 in 5.0 mi NNW 6.9 mph - 0.00 in Snow Light Snow
10:37 PM 19.4 °F 11.5 °F 15.8 °F 86% 29.99 in 5.0 mi NNW 5.8 mph - 0.00 in Snow Light Snow
11:01 PM 19.0 °F 12.3 °F 16.0 °F 88% 30.13 in 5.0 mi NNW 4.6 mph - 0.00 in Snow Light Snow